Temperature
17 17 17 17 17 17 17 17 17 17 17 17 17 17 17 18 18 18 17 18 18 17 17 18 18 18 18 18 18 18 18 18 18 18 18 18 18 18 18 18 18 17 18
16 16 17 17 17 17 17 17 17 17 17 17 17 17 17 17 17 17 17 17 17 17 17 17 18 18 18 18 18 18 18 18 18 18 18 17 18 18 18 18 18 17 18
16 16 17 17 17 17 17 17 17 17 17 17 17 17 17 17 17 17 17 17 17 17 17 17 17 17 17 17 17 17 17 17 17 17 17 17 17 17 17 17 17 17 17
16 16 16 17 17 17 17 17 17 17 17 17 17 17 17 17 17 17 17 17 17 17 17 17 17 17 17 17 17 17 17 17 17 17 17 17 17 17 17 17 17 17 17
16 16 16 17 17 17 17 17 17 17 17 17 17 17 17 17 17 17 17 17 17 17 17 17 17 17 17 17 17 17 17 17 17 17 16 16 17 17 17 17 17 17 17
16 16 16 17 17 17 17 16 17 17 17 17 17 17 17 17 16 17 17 17 17 17 17 17 17 17 17 17 17 17 17 17 16 16 16 16 16 17 17 17 17 17 17
16 16 16 17 17 17 16 16 16 16 17 17 17 17 17 17 16 17 17 17 17 17 17 17 17 16 16 16 16 16 16 16 16 16 16 16 16 17 17 17 17 17 17
16 16 16 16 16 16 16 16 16 16 16 16 17 17 17 17 16 16 16 16 16 17 16 16 16 16 16 16 16 16 16 16 16 16 16 16 16 16 16 16 16 16 17
16 16 16 16 16 16 16 16 16 16 16 16 17 17 17 16 16 16 16 16 16 16 16 16 16 16 16 16 16 16 16 16 16 16 16 16 16 16 16 16 16 16 16
16 16 16 16 16 16 16 16 16 16 16 16 16 16 16 16 16 16 16 16 16 16 16 16 16 16 16 16 16 16 16 16 15 15 15 15 16 16 16 16 16 16 16
16 16 16 16 16 16 16 16 16 16 16 16 16 16 16 15 15 15 16 16 16 16 16 16 16 16 16 16 16 15 15 15 15 15 15 15 16 16 16 16 16 16 16
16 16 16 16 16 16 15 16 16 15 15 15 15 15 15 15 15 15 16 16 16 16 16 16 16 16 15 15 15 15 15 15 15 15 15 15 15 15 15 15 15 15 15
16 16 16 16 16 16 16 15 15 15 15 15 15 15 15 15 15 15 15 15 15 15 15 15 15 15 15 15 15 15 15 15 15 15 15 15 15 15 15 15 15 15 15
16 15 15 16 16 16 16 15 15 15 15 15 15 15 15 15 15 15 15 15 15 15 15 15 15 15 15 15 15 15 15 14 14 14 14 15 15 15 15 15 15 15 15
16 15 16 15 15 16 16 15 15 15 15 15 15 15 15 15 15 15 15 15 15 15 15 14 14 14 14 14 14 14 14 14 14 14 14 14 14 14 14 14 14 14 15
16 16 15 15 15 15 15 15 15 15 15 15 15 15 15 15 15 15 15 15 14 14 14 14 14 14 14 14 14 14 14 14 14 14 13 13 14 14 14 14 14 14 14
16 15 15 15 15 15 15 15 15 15 15 15 15 14 15 15 14 14 14 14 14 14 14 14 14 14 14 14 13 13 13 13 13 13 13 13 13 13 13 14 14 13 14
15 15 15 15 15 15 15 15 14 14 14 14 14 14 14 14 14 14 14 14 14 14 14 14 14 14 14 13 13 13 13 13 13 13 13 13 13 13 13 13 13 13 13
15 15 15 15 15 15 14 14 14 14 14 14 14 14 14 14 14 14 14 14 14 14 13 13 13 13 13 13 13 13 13 13 12 13 13 13 13 12 12 13 13 13 13
15 15 15 15 14 14 14 14 14 14 14 14 14 14 14 14 14 14 14 13 13 13 13 13 13 13 13 13 13 12 12 12 12 12 12 12 12 12 12 12 12 12 12
15 15 15 14 14 14 14 14 14 13 13 13 13 13 13 13 13 13 13 13 13 13 13 13 13 12 13 13 12 12 12 12 12 12 12 12 12 12 12 12 11 11 11
15 15 14 14 14 14 14 13 13 13 13 13 13 13 13 13 13 13 13 13 13 13 13 12 12 12 12 12 12 12 12 12 11 11 11 11 11 11 11 11 11 11 11
14 14 14 14 14 14 13 13 13 13 13 13 13 13 13 13 13 13 12 12 12 12 12 12 12 12 12 12 12 12 12 13 12 11 11 11 11 11 11 11 11 11 11
14 14 14 14 14 13 13 13 13 13 13 13 12 12 13 12 12 12 12 12 12 12 12 12 12 11 11 11 11 11 11 11 12 11 11 11 10 10 10 10 10 10 10
14 14 14 14 14 13 13 13 13 13 12 12 12 12 12 12 12 12 12 12 12 12 12 11 11 11 11 11 11 11 11 11 11 11 11 10 10 10 10 10 10 10 10
14 14 14 14 14 13 13 13 13 12 12 12 12 12 12 12 12 12 11 11 11 11 11 11 11 11 10 10 10 10 10 10 11 11 11 10 10 9 9 9 9 9 10
Wind_Speed
2 4 5 5 6 6 6 7 7 7 7 8 8 9 8 8 8 8 8 8 8 7 7 7 7 7 7 7 7 7 7 7 6 6 6 6 6 5 5 4 2 4 6
3 4 5 5 6 7 7 7 7 8 8 8 8 9 8 9 9 9 8 8 8 7 7 7 7 7 7 7 7 7 7 6 7 6 5 5 6 5 5 4 4 6 6
4 4 5 5 6 7 8 8 8 8 8 8 9 9 9 9 9 9 8 8 8 8 7 7 7 8 8 8 7 7 7 7 6 4 2 3 6 6 5 5 5 5 5
4 4 6 7 7 8 9 9 9 9 9 9 9 10 10 9 9 9 9 9 8 8 8 8 8 8 8 8 7 8 7 7 5 2 3 4 5 7 6 6 5 5 5
4 5 8 7 8 9 9 10 10 10 10 10 10 10 9 9 9 9 9 9 9 9 9 8 8 8 8 8 8 8 7 6 4 3 5 5 5 7 6 5 5 5 5
6 7 9 8 8 9 10 10 11 11 11 11 10 10 9 9 9 10 10 10 10 10 9 9 8 8 8 8 8 8 7 5 2 5 5 5 5 7 6 5 5 6 6
7 7 9 9 9 9 10 10 11 11 11 12 11 11 10 9 9 10 10 10 10 10 9 9 8 8 8 7 7 7 6 4 4 5 5 5 6 6 6 6 6 6 7
7 7 8 9 9 9 10 10 11 11 11 12 12 12 11 10 9 9 9 9 9 9 9 8 8 8 8 8 7 7 6 4 4 4 5 6 7 6 6 6 7 7 7
7 7 7 8 8 9 10 10 10 11 11 11 11 11 11 11 10 9 9 9 8 8 8 8 8 8 8 8 8 7 6 4 4 4 5 6 7 6 6 6 7 7 7
6 6 6 7 7 7 8 10 9 10 10 10 10 10 8 8 9 8 9 9 9 9 9 8 8 8 8 8 7 6 3 2 5 5 6 8 8 7 7 7 7 7 7
5 5 5 5 6 6 7 7 7 8 7 6 7 7 5 6 7 8 11 10 9 9 9 8 7 6 6 7 6 3 2 4 6 6 7 8 8 8 8 8 7 7 7
5 5 5 4 5 5 5 5 5 6 6 6 6 6 5 6 7 7 9 9 9 8 8 8 6 4 2 5 5 2 4 5 5 6 8 9 9 9 9 9 9 8 8
5 5 4 4 4 4 4 4 4 4 5 5 6 6 5 5 5 5 5 5 6 5 6 5 4 5 5 5 5 5 5 4 5 6 8 9 9 9 9 10 10 9 9
5 4 4 3 4 4 4 4 4 4 4 4 5 6 5 4 4 4 4 4 4 4 5 5 4 5 6 7 7 7 6 5 5 5 8 9 9 9 10 10 10 10 9
4 4 3 3 3 3 4 3 4 4 4 5 5 5 5 4 4 4 4 4 4 4 4 4 4 5 6 6 7 8 8 7 6 6 7 11 11 11 11 11 11 11 10
4 4 3 3 3 3 3 3 3 4 4 5 5 5 5 5 4 4 4 4 4 4 4 4 5 5 5 6 7 8 8 8 8 7 7 8 11 11 11 11 12 11 11
3 3 3 3 3 3 3 4 3 3 4 4 4 5 5 5 5 5 4 4 4 4 4 4 5 4 5 5 6 7 7 8 8 8 7 6 7 9 11 11 12 12 12
3 3 3 2 2 3 3 3 3 3 3 4 4 4 5 5 5 5 4 3 4 4 4 4 3 4 4 5 5 5 5 6 8 8 8 8 7 7 9 12 12 12 12
2 3 3 3 2 3 3 3 3 3 3 3 4 4 5 5 5 4 4 4 4 4 4 3 3 3 4 4 4 4 5 6 6 7 8 8 8 7 7 9 10 11 12
2 2 3 3 2 3 2 2 2 3 3 3 4 4 5 4 4 4 3 3 4 3 3 3 4 3 4 3 3 5 5 5 5 6 7 7 7 8 8 8 7 8 10
3 2 2 2 2 2 1 1 1 2 2 2 3 4 4 4 4 4 3 3 3 3 3 3 3 3 3 3 3 3 4 5 5 5 5 5 6 7 8 8 7 7 7
3 2 2 3 2 2 1 0 1 1 1 2 3 3 4 4 3 3 3 2 2 2 3 3 2 2 2 1 1 0 1 2 3 4 4 4 5 6 6 7 7 7 7
3 2 2 3 3 3 2 1 1 1 0 1 1 2 3 3 3 3 3 3 2 2 2 2 1 2 1 1 2 2 1 1 1 2 4 4 4 4 5 6 7 8 7
3 3 3 3 3 3 3 2 2 1 0 1 1 1 2 3 3 3 3 2 2 2 1 1 1 1 0 0 1 2 2 1 1 0 1 3 4 4 5 5 5 7 8
3 3 3 3 3 3 3 2 2 1 0 0 0 1 1 2 2 2 2 2 2 1 1 1 0 1 0 1 1 1 1 1 2 1 1 0 1 3 3 4 4 5 6
3 3 2 2 2 2 2 2 2 1 1 1 0 0 1 1 1 1 1 1 2 1 1 1 1 1 1 1 1 1 1 1 1 1 1 1 1 1 2 2 3 4 5
Wind_Direction
43 31 48 34 42 46 54 58 62 64 66 67 70 72 77 79 81 81 81 83 83 81 77 81 87 88 89 88 85 84 85 86 81 82 82 80 79 79 77 71 68 95 82
59 53 62 53 51 52 58 66 67 68 68 69 71 72 75 78 78 78 80 80 82 81 80 80 84 85 84 84 84 85 84 85 82 83 90 103 91 77 73 62 34 58 73
67 65 76 63 60 61 63 68 70 69 71 73 72 72 73 76 78 78 77 79 79 81 81 81 83 83 82 80 77 79 80 80 81 86 102 91 94 83 71 65 63 61 63
69 69 71 69 67 64 64 65 70 70 71 73 74 73 72 74 76 78 78 80 77 79 82 83 84 85 84 83 80 78 77 78 80 90 82 64 68 76 69 63 62 59 57
80 77 77 70 70 65 65 64 69 69 69 71 73 74 71 71 73 75 78 77 78 78 80 83 84 83 83 82 81 77 72 73 82 73 64 62 62 66 63 60 58 54 54
85 83 82 71 68 66 65 65 68 67 66 68 69 71 70 70 73 71 76 74 75 74 74 77 78 79 80 82 80 76 70 64 82 73 64 61 63 63 57 54 54 53 55
89 87 87 76 71 70 68 68 68 68 66 66 66 66 67 69 71 73 73 71 72 72 72 73 74 74 75 80 81 77 69 52 62 70 65 61 61 63 61 55 56 58 60
86 85 91 90 80 74 68 68 68 66 65 65 65 64 64 66 71 74 72 74 73 74 73 73 75 76 76 79 78 76 63 27 71 69 69 65 60 65 67 63 63 62 63
84 85 88 92 92 87 76 69 67 66 64 64 64 63 63 65 67 70 70 68 71 73 74 74 73 74 75 76 75 73 67 34 55 62 68 68 68 70 72 70 67 65 68
86 87 84 81 78 83 84 73 68 65 62 65 65 63 65 72 72 72 70 66 68 71 74 72 72 72 74 73 70 68 66 64 59 61 59 65 63 66 73 71 68 68 69
87 86 84 79 74 71 72 79 78 77 68 73 77 68 61 62 65 72 64 65 67 68 69 67 68 75 85 86 74 63 65 63 64 58 58 59 63 66 69 69 69 66 68
100 91 84 79 75 76 72 73 64 68 63 58 58 58 53 56 60 64 81 71 69 73 77 68 67 85 68 80 84 69 60 61 64 62 62 62 63 63 65 66 66 65 65
104 94 90 86 82 78 78 66 58 57 55 49 45 52 52 55 62 63 71 81 75 73 70 74 71 61 61 59 54 54 52 59 65 63 62 64 65 64 62 62 64 62 63
104 92 85 83 85 74 72 70 57 53 49 48 45 47 49 46 41 48 51 53 56 58 58 59 53 59 56 56 54 51 52 57 68 68 65 65 66 66 63 64 63 61 63
108 103 91 87 83 80 77 65 60 53 44 51 44 38 46 43 40 43 52 49 47 51 54 55 54 55 55 52 50 48 48 54 71 72 72 71 64 61 60 59 57 57 59
116 109 102 98 88 82 78 70 59 57 60 50 45 38 42 43 37 37 46 48 45 46 50 56 60 57 57 53 50 48 48 55 63 71 73 77 71 59 55 55 55 55 55
122 119 112 99 95 87 76 68 60 52 58 54 44 39 45 43 37 41 41 45 45 49 55 59 63 64 63 61 56 51 50 52 59 64 69 67 70 68 58 53 52 52 52
131 125 115 116 112 98 84 78 66 51 50 52 47 37 40 43 43 44 49 48 53 59 60 64 59 59 62 57 54 49 52 49 53 56 62 65 60 58 61 54 50 48 48
132 127 127 122 116 102 87 82 64 55 48 46 43 35 32 37 42 50 46 41 51 58 59 66 63 59 65 58 59 56 53 51 52 52 56 59 59 55 53 59 54 48 43
150 141 124 122 118 110 109 91 77 56 44 46 43 36 30 29 36 48 51 45 54 66 63 68 77 69 66 65 66 59 55 62 60 53 50 52 51 50 46 43 45 52 47
163 152 137 132 129 126 118 96 67 56 40 43 38 36 33 31 35 48 46 46 50 69 66 70 84 89 75 68 78 67 60 60 61 62 50 47 51 47 44 39 34 34 47
175 169 165 166 162 162 140 97 55 54 38 37 34 31 32 31 35 42 53 59 63 83 88 80 87 85 81 49 23 34 68 85 61 55 53 46 46 48 44 39 35 38 37
192 190 193 183 166 160 159 146 130 115 106 74 40 31 25 27 35 42 51 59 64 78 95 89 88 88 85 75 22 348 326 26 49 66 50 49 46 42 40 36 34 35 36
198 197 200 185 172 166 168 172 176 176 352 359 9 40 37 37 49 54 57 59 69 69 89 95 77 74 36 56 52 17 4 3 289 132 73 53 47 43 36 34 33 33 33
188 190 193 184 173 170 184 176 195 201 213 145 28 30 24 51 54 65 65 70 67 70 69 62 58 32 14 352 13 26 24 350 315 283 265 341 48 41 31 28 30 32 31
176 175 169 167 162 172 190 191 198 204 206 186 174 7 349 31 57 81 74 83 78 75 68 64 82 85 30 10 349 344 317 306 311 310 285 278 340 15 16 27 23 29 27
Height
1525 1524 1522 1522 1521 1521 1520 1519 1518 1518 1518 1517 1517 1516 1516 1516 1516 1516 1516 1516 1516 1516 1516 1517 1517 1517 1517 1517 1517 1518 1518 1518 1518 1518 1518 1518 1518 1518 1518 1518 1518 1518 1517
1526 1525 1523 1523 1522 1522 1521 1520 1520 1519 1519 1518 1518 1518 1517 1517 1517 1517 1517 1517 1517 1517 1517 1518 1518 1518 1518 1518 1518 1518 1518 1518 1518 1519 1519 1519 1519 1518 1518 1518 1518 1518 1517
1526 1526 1525 1524 1523 1523 1522 1521 1521 1520 1520 1520 1519 1519 1519 1518 1518 1518 1518 1518 1518 1518 1518 1519 1519 1519 1519 1519 1519 1519 1519 1519 1519 1519 1519 1520 1520 1519 1519 1519 1518 1518 1518
1527 1526 1526 1525 1524 1524 1523 1523 1522 1522 1521 1521 1521 1520 1520 1520 1519 1519 1520 1519 1519 1519 1519 1519 1519 1519 1519 1519 1520 1519 1519 1519 1520 1520 1521 1521 1520 1519 1519 1519 1519 1519 1518
1527 1527 1526 1526 1525 1525 1525 1524 1524 1523 1523 1522 1522 1522 1522 1521 1521 1521 1521 1521 1520 1520 1520 1520 1520 1520 1520 1520 1520 1520 1520 1520 1520 1521 1521 1520 1520 1519 1519 1519 1519 1519 1518
1527 1527 1527 1527 1527 1526 1526 1526 1525 1524 1524 1524 1524 1523 1523 1523 1522 1522 1522 1522 1522 1521 1521 1521 1521 1521 1521 1520 1520 1520 1520 1520 1521 1521 1521 1521 1520 1520 1519 1519 1519 1519 1519
1529 1529 1529 1528 1528 1528 1528 1527 1527 1526 1526 1525 1525 1525 1524 1524 1524 1524 1523 1523 1523 1522 1522 1521 1521 1521 1521 1521 1521 1520 1520 1520 1521 1521 1521 1521 1520 1520 1520 1520 1519 1519 1519
1530 1530 1530 1530 1530 1530 1529 1529 1528 1528 1527 1527 1526 1526 1525 1525 1525 1525 1524 1524 1524 1523 1523 1522 1522 1522 1522 1521 1521 1521 1520 1521 1521 1521 1521 1521 1520 1520 1520 1520 1520 1519 1519
1533 1533 1533 1533 1532 1531 1531 1530 1530 1529 1529 1528 1527 1527 1527 1526 1526 1526 1525 1525 1525 1524 1524 1523 1523 1523 1522 1522 1521 1521 1521 1520 1521 1521 1521 1521 1520 1520 1520 1520 1520 1520 1519
1534 1534 1534 1534 1534 1534 1533 1532 1531 1531 1530 1530 1529 1529 1528 1528 1528 1527 1527 1526 1526 1525 1525 1524 1524 1523 1523 1522 1522 1521 1521 1521 1521 1521 1521 1520 1520 1520 1520 1520 1520 1520 1519
1536 1536 1536 1536 1536 1535 1535 1534 1533 1533 1532 1531 1531 1530 1530 1530 1530 1529 1528 1527 1527 1526 1525 1525 1524 1524 1523 1523 1522 1521 1521 1522 1521 1521 1520 1520 1520 1520 1520 1520 1520 1520 1520
1537 1537 1537 1537 1537 1537 1536 1536 1535 1535 1534 1534 1533 1532 1532 1532 1531 1530 1529 1528 1528 1527 1526 1526 1525 1525 1525 1524 1523 1522 1521 1521 1520 1520 1520 1520 1520 1520 1520 1520 1520 1520 1520
1538 1538 1538 1538 1538 1537 1537 1537 1536 1536 1535 1535 1534 1534 1533 1532 1532 1531 1531 1530 1529 1529 1528 1527 1527 1526 1526 1524 1523 1522 1521 1520 1519 1520 1520 1520 1520 1520 1521 1520 1520 1520 1520
1539 1538 1538 1538 1538 1538 1538 1537 1537 1537 1536 1536 1535 1535 1534 1533 1533 1532 1532 1531 1530 1530 1529 1528 1527 1527 1526 1525 1524 1522 1520 1518 1518 1518 1519 1520 1520 1521 1521 1521 1520 1520 1520
1539 1539 1539 1539 1539 1539 1538 1538 1538 1537 1537 1537 1535 1535 1535 1534 1534 1533 1533 1531 1531 1530 1530 1529 1528 1527 1526 1525 1523 1522 1520 1518 1518 1518 1519 1520 1521 1521 1521 1521 1521 1521 1520
1539 1539 1539 1539 1539 1539 1539 1539 1538 1538 1537 1537 1536 1536 1536 1535 1534 1534 1533 1532 1532 1531 1531 1530 1529 1528 1527 1526 1524 1523 1521 1520 1519 1520 1520 1521 1521 1522 1522 1522 1521 1521 1521
1539 1539 1539 1539 1539 1539 1539 1539 1538 1538 1538 1538 1537 1537 1536 1535 1535 1534 1534 1533 1532 1532 1532 1531 1530 1529 1528 1527 1526 1525 1523 1522 1522 1522 1522 1522 1523 1522 1522 1522 1521 1521 1521
1539 1539 1539 1539 1539 1539 1539 1539 1539 1539 1538 1538 1537 1537 1537 1536 1535 1535 1534 1533 1533 1532 1532 1531 1530 1530 1530 1528 1527 1526 1525 1524 1524 1523 1523 1523 1524 1523 1523 1522 1522 1522 1521
1539 1539 1539 1539 1539 1539 1539 1539 1538 1538 1538 1538 1537 1537 1537 1536 1535 1535 1534 1533 1533 1533 1532 1532 1531 1531 1530 1529 1528 1527 1527 1526 1525 1525 1525 1525 1525 1524 1524 1523 1522 1522 1521
1539 1539 1539 1539 1539 1539 1539 1539 1538 1538 1538 1538 1537 1537 1536 1536 1535 1535 1534 1534 1533 1533 1533 1533 1532 1531 1530 1530 1529 1529 1528 1528 1527 1526 1526 1525 1525 1525 1524 1523 1523 1522 1521
1538 1539 1539 1539 1539 1539 1539 1538 1538 1538 1538 1537 1537 1536 1536 1535 1535 1534 1534 1534 1533 1533 1533 1533 1532 1532 1531 1531 1530 1530 1530 1529 1529 1528 1527 1527 1526 1525 1524 1524 1524 1523 1522
1537 1537 1538 1538 1538 1538 1538 1538 1538 1538 1537 1537 1536 1536 1535 1535 1534 1534 1534 1533 1533 1532 1532 1532 1532 1532 1531 1531 1531 1531 1531 1532 1530 1529 1528 1527 1527 1526 1526 1525 1525 1524 1523
1535 1536 1536 1537 1537 1537 1537 1537 1537 1537 1537 1537 1536 1535 1535 1534 1533 1533 1533 1533 1532 1532 1532 1532 1532 1532 1532 1532 1532 1532 1532 1531 1531 1531 1529 1528 1528 1527 1526 1526 1525 1524 1524
1534 1535 1535 1536 1536 1536 1537 1536 1537 1537 1537 1536 1536 1535 1534 1533 1532 1532 1532 1532 1532 1532 1532 1532 1532 1532 1531 1532 1531 1531 1532 1531 1531 1531 1531 1530 1529 1528 1527 1526 1526 1525 1524
1533 1533 1534 1535 1535 1535 1536 1535 1535 1536 1536 1535 1535 1534 1534 1533 1532 1531 1531 1531 1531 1531 1531 1531 1531 1531 1531 1531 1531 1531 1531 1531 1531 1531 1530 1530 1529 1528 1527 1526 1526 1525 1524
1531 1532 1532 1533 1533 1534 1534 1534 1534 1535 1534 1534 1534 1533 1533 1532 1531 1531 1530 1530 1530 1530 1530 1530 1530 1530 1530 1530 1530 1530 1530 1530 1530 1530 1530 1529 1529 1528 1527 1526 1525 1525 1524